Location: Strada George Coșbuc
(47.6577°N, 23.5639°E)
Time: 01:22:04
(UTC+03:00)

ISS - Pass Details

Date: 21 September 2017
Orbit: 401 x 407 km, 51.6° (Epoch: 23 September)

Event Time Altitude Azimuth Distance (km) Brightness Sun altitude
Exits shadow 05:59:39 13° 206° (SSW) 1,313 -1.6 -12.7°
Drops below altitude 10° 06:00:31 10° 192° (SSW) 1,462 -1.3 -12.6°
Sets 06:03:19 0° 165° (SSE) 2,316 0.0 -12.1°
